• In Uzbekistan
  • List of Countries
  • For 7 days
  • Water Temperature
  • Satellite Maps
  • Weather Map
  • Weather Widgets
  • user-avatar
    Login

    Hourly Weather Yeghegnadzor

    Today, 23 April, Sunday

    Time Temperature Precipitation Wind Pressure Humidity
    00:00 +12°C° 0 mm 2 mps 654 mmHg 59%
    01:00 +12°C° 0 mm 2 mps 654 mmHg 58%
    02:00 +12°C° 0 mm 2 mps 653 mmHg 58%
    03:00 +10°C° 0 mm 2 mps 653 mmHg 66%
    04:00 +10°C° 0 mm 2 mps 653 mmHg 64%
    05:00 +10°C° 0 mm 2 mps 653 mmHg 61%
    06:00 +12°C° 0 mm 2 mps 653 mmHg 59%
    07:00 +14°C° 0 mm 2 mps 653 mmHg 53%
    08:00 +17°C° 0 mm 2 mps 654 mmHg 48%
    09:00 +20°C° 0 mm 2 mps 654 mmHg 42%
    10:00 +21°C° 0 mm 3 mps 654 mmHg 39%
    11:00 +22°C° 0 mm 4 mps 654 mmHg 36%
    12:00 +23°C° 0 mm 4 mps 653 mmHg 34%
    13:00 +23°C° 0 mm 5 mps 652 mmHg 33%
    14:00 +23°C° 0 mm 5 mps 652 mmHg 32%
    15:00 +23°C° 0 mm 6 mps 651 mmHg 31%
    16:00 +22°C° 0.1 mm 5 mps 650 mmHg 34%
    17:00 +21°C° 0.1 mm 4 mps 649 mmHg 37%
    18:00 +19°C° 0.1 mm 3 mps 649 mmHg 40%
    19:00 +18°C° 0.3 mm 3 mps 648 mmHg 45%
    20:00 +17°C° 0.3 mm 3 mps 648 mmHg 50%
    21:00 +16°C° 0.3 mm 3 mps 648 mmHg 54%
    22:00 +14°C° 0.4 mm 3 mps 647 mmHg 57%
    23:00 +14°C° 0.4 mm 3 mps 647 mmHg 61%

    Tomorrow, 24 April, Monday

    Time Temperature Precipitation Wind Pressure Humidity
    00:00 +13°C° 0.4 mm 3 mps 647 mmHg 64%
    01:00 +13°C° 0.4 mm 3 mps 647 mmHg 67%
    02:00 +13°C° 0.4 mm 2 mps 647 mmHg 69%
    03:00 +12°C° 0.4 mm 2 mps 647 mmHg 72%
    04:00 +12°C° 0.3 mm 2 mps 647 mmHg 73%
    05:00 +12°C° 0.3 mm 2 mps 646 mmHg 74%
    06:00 +10°C° 0.3 mm 2 mps 646 mmHg 75%
    07:00 +13°C° 0.2 mm 2 mps 647 mmHg 68%
    08:00 +14°C° 0.2 mm 3 mps 647 mmHg 61%
    09:00 +17°C° 0.2 mm 3 mps 648 mmHg 55%
    10:00 +17°C° 0.3 mm 3 mps 648 mmHg 52%
    11:00 +18°C° 0.3 mm 4 mps 648 mmHg 49%
    12:00 +19°C° 0.3 mm 4 mps 648 mmHg 46%
    13:00 +19°C° 0.5 mm 4 mps 648 mmHg 44%
    14:00 +19°C° 0.5 mm 5 mps 648 mmHg 41%
    15:00 +17°C° 0.5 mm 5 mps 648 mmHg 39%
    16:00 +17°C° 0.1 mm 4 mps 649 mmHg 41%
    17:00 +16°C° 0.1 mm 3 mps 649 mmHg 44%
    18:00 +15°C° 0.1 mm 1 mps 649 mmHg 47%
    19:00 +13°C° 0.1 mm 1 mps 649 mmHg 52%
    20:00 +12°C° 0.1 mm 1 mps 650 mmHg 58%
    21:00 +9°C° 0.1 mm 2 mps 650 mmHg 64%
    22:00 +9°C° 0 mm 2 mps 650 mmHg 66%
    23:00 +8°C° 0 mm 2 mps 650 mmHg 68%

    Day after tomorrow, 25 April, Tuesday

    Time Temperature Precipitation Wind Pressure Humidity
    00:00 +8°C° 0 mm 2 mps 651 mmHg 70%
    01:00 +7°C° 0 mm 2 mps 651 mmHg 69%
    02:00 +7°C° 0 mm 2 mps 651 mmHg 67%
    03:00 +7°C° 0 mm 2 mps 651 mmHg 65%
    04:00 +8°C° 0 mm 1 mps 651 mmHg 61%
    05:00 +8°C° 0 mm 1 mps 652 mmHg 57%
    06:00 +8°C° 0 mm 1 mps 652 mmHg 54%
    07:00 +9°C° 0 mm 2 mps 653 mmHg 48%
    08:00 +10°C° 0 mm 2 mps 653 mmHg 42%
    09:00 +13°C° 0 mm 2 mps 654 mmHg 36%
    10:00 +14°C° 0 mm 2 mps 654 mmHg 33%
    11:00 +14°C° 0 mm 3 mps 654 mmHg 30%
    12:00 +16°C° 0 mm 3 mps 654 mmHg 27%
    13:00 +16°C° 0 mm 3 mps 654 mmHg 27%
    14:00 +16°C° 0 mm 3 mps 654 mmHg 28%
    15:00 +16°C° 0 mm 3 mps 654 mmHg 28%
    16:00 +15°C° 0 mm 2 mps 654 mmHg 34%
    17:00 +13°C° 0 mm 2 mps 654 mmHg 39%
    18:00 +12°C° 0 mm 2 mps 654 mmHg 45%
    19:00 +10°C° 0 mm 2 mps 655 mmHg 52%
    20:00 +8°C° 0 mm 2 mps 655 mmHg 59%
    21:00 +7°C° 0 mm 2 mps 656 mmHg 66%
    22:00 +6°C° 0 mm 2 mps 656 mmHg 68%
    23:00 +6°C° 0 mm 2 mps 656 mmHg 70%

    26 April, Wednesday

    Time Temperature Precipitation Wind Pressure Humidity
    00:00 +6°C° 0 mm 2 mps 657 mmHg 72%
    01:00 +5°C° 0 mm 2 mps 657 mmHg 73%
    02:00 +5°C° 0 mm 2 mps 657 mmHg 73%
    03:00 +5°C° 0 mm 2 mps 657 mmHg 73%
    04:00 +6°C° 0 mm 1 mps 657 mmHg 71%
    05:00 +6°C° 0 mm 1 mps 658 mmHg 70%
    06:00 +6°C° 0 mm 1 mps 658 mmHg 69%
    07:00 +8°C° 0 mm 1 mps 658 mmHg 60%
    08:00 +10°C° 0 mm 1 mps 659 mmHg 51%
    09:00 +12°C° 0 mm 1 mps 660 mmHg 42%
    10:00 +13°C° 0 mm 1 mps 659 mmHg 41%
    11:00 +14°C° 0 mm 2 mps 659 mmHg 40%
    12:00 +15°C° 0 mm 2 mps 659 mmHg 38%
    13:00 +15°C° 0 mm 2 mps 659 mmHg 39%
    14:00 +15°C° 0 mm 2 mps 658 mmHg 40%
    15:00 +15°C° 0 mm 2 mps 658 mmHg 41%
    16:00 +14°C° 0 mm 2 mps 658 mmHg 46%
    17:00 +13°C° 0 mm 2 mps 658 mmHg 52%
    18:00 +12°C° 0 mm 2 mps 658 mmHg 57%
    19:00 +10°C° 0 mm 2 mps 658 mmHg 62%
    20:00 +9°C° 0 mm 2 mps 658 mmHg 67%
    21:00 +7°C° 0 mm 2 mps 658 mmHg 72%
    22:00 +7°C° 0 mm 2 mps 658 mmHg 74%
    23:00 +6°C° 0 mm 2 mps 658 mmHg 75%

    27 April, Thursday

    Time Temperature Precipitation Wind Pressure Humidity
    00:00 +6°C° 0 mm 2 mps 658 mmHg 76%
    01:00 +5°C° 0 mm 2 mps 658 mmHg 77%
    02:00 +6°C° 0 mm 1 mps 658 mmHg 77%
    03:00 +6°C° 0 mm 1 mps 657 mmHg 77%
    04:00 +6°C° 0 mm 1 mps 658 mmHg 75%
    05:00 +6°C° 0 mm 1 mps 658 mmHg 72%
    06:00 +6°C° 0 mm 1 mps 658 mmHg 70%
    07:00 +8°C° 0 mm 1 mps 658 mmHg 60%
    08:00 +11°C° 0 mm 1 mps 659 mmHg 50%
    09:00 +13°C° 0 mm 1 mps 659 mmHg 41%
    10:00 +15°C° 0 mm 1 mps 659 mmHg 38%
    11:00 +16°C° 0 mm 1 mps 659 mmHg 35%
    12:00 +17°C° 0 mm 2 mps 658 mmHg 32%
    13:00 +17°C° 0 mm 2 mps 658 mmHg 33%
    14:00 +17°C° 0 mm 2 mps 658 mmHg 35%
    15:00 +17°C° 0 mm 2 mps 657 mmHg 36%
    16:00 +16°C° 0 mm 2 mps 657 mmHg 42%
    17:00 +15°C° 0 mm 2 mps 657 mmHg 48%
    18:00 +13°C° 0 mm 1 mps 657 mmHg 54%
    19:00 +12°C° 0 mm 2 mps 657 mmHg 60%
    20:00 +10°C° 0 mm 2 mps 657 mmHg 66%
    21:00 +8°C° 0 mm 2 mps 658 mmHg 72%
    22:00 +8°C° 0 mm 2 mps 658 mmHg 74%
    23:00 +7°C° 0 mm 2 mps 657 mmHg 75%

    28 April, Friday

    Time Temperature Precipitation Wind Pressure Humidity
    00:00 +7°C° 0 mm 2 mps 657 mmHg 77%
    01:00 +6°C° 0 mm 2 mps 657 mmHg 77%
    02:00 +6°C° 0 mm 2 mps 657 mmHg 78%
    03:00 +7°C° 0 mm 1 mps 657 mmHg 78%
    04:00 +7°C° 0 mm 1 mps 657 mmHg 76%
    05:00 +7°C° 0 mm 1 mps 657 mmHg 74%
    06:00 +8°C° 0 mm 1 mps 658 mmHg 71%
    07:00 +10°C° 0 mm 1 mps 658 mmHg 62%
    08:00 +12°C° 0 mm 1 mps 659 mmHg 52%
    09:00 +15°C° 0 mm 1 mps 659 mmHg 43%
    10:00 +16°C° 0 mm 1 mps 659 mmHg 40%
    11:00 +18°C° 0 mm 1 mps 659 mmHg 38%
    12:00 +18°C° 0 mm 2 mps 658 mmHg 36%
    13:00 +18°C° 0.1 mm 2 mps 658 mmHg 37%
    14:00 +18°C° 0.1 mm 2 mps 657 mmHg 39%
    15:00 +18°C° 0.1 mm 2 mps 657 mmHg 41%
    16:00 +18°C° 0.1 mm 1 mps 657 mmHg 47%
    17:00 +16°C° 0.1 mm 1 mps 656 mmHg 54%
    18:00 +15°C° 0.1 mm 1 mps 656 mmHg 60%
    19:00 +13°C° 0 mm 1 mps 656 mmHg 65%
    20:00 +12°C° 0 mm 1 mps 656 mmHg 71%
    21:00 +10°C° 0 mm 1 mps 656 mmHg 76%
    22:00 +10°C° 0 mm 1 mps 656 mmHg 78%
    23:00 +9°C° 0 mm 1 mps 656 mmHg 79%
    Show more